Starlink 32428

operational
NORAD ID: 61666 Int'l Des: 2024-193 Owner: SPXS Country: US Constellation: starlink
LEOCIRCULAR

Über Starlink 32428

Beschreibung wird geladen...

Live-Position

3D-Globus wird geladen...

Nächste Überflüge

Höhenverlauf

Altitude vs Time

uPlot chart will show altitude changes over time

Zweizeiliger Elementsatz

1 61666U 24193F 25352.60039297 -.00001641 00000-0 -43298-4 0 9991
2 61666 53.1610 107.5089 0001713 112.9610 247.1571 15.30192000 64115
Epoch: 18. Dez. 2025 • Age: 31 hours

Aktueller Status

Höhe 493.7 km
Geschwindigkeit 7.62 km/s
Subsatellitenpunkt -50.10°S, 11.85°W
Startdatum 26. Okt. 2024
Alter 1.1 years
Typ internet

Technische Details

Klassifizierung Payload
Masse 730.00 kg
Trockenmasse 700.00 kg
Gesamtmasse 730.00 kg
Länge 0.30 m
Durchmesser 4.10 m
Spannweite 29.00 m
Form Box + pan
Hersteller SPXS
Bus-Typ Starlink V2M
Phasenstatus In Orbit
Besitzer/Staat SPXS/US

Große Konstellationen

Loading constellations...